• In Hungary
  • List of Countries
  • For 7 days
  • Water Temperature
  • Satellite Maps
  • Weather Map
  • News
  • Weather Widgets
  • user-avatar
    Login

    Hourly Weather Wesseling

    Today, 21 November, Tuesday

    Time Temperature Precipitation Wind Pressure Humidity
    00:00 +8°C° 0 mm 4 mps 755 mmHg 92%
    01:00 +10°C° 0.1 mm 4 mps 755 mmHg 92%
    02:00 +10°C° 0.1 mm 4 mps 755 mmHg 93%
    03:00 +10°C° 0.1 mm 4 mps 755 mmHg 93%
    04:00 +10°C° 0.1 mm 4 mps 755 mmHg 94%
    05:00 +10°C° 0.1 mm 4 mps 755 mmHg 94%
    06:00 +10°C° 0 mm 4 mps 755 mmHg 93%
    07:00 +10°C° 0.7 mm 4 mps 755 mmHg 93%
    08:00 +10°C° 0.7 mm 4 mps 755 mmHg 92%
    09:00 +9°C° 0.7 mm 5 mps 755 mmHg 92%
    10:00 +10°C° 0.3 mm 5 mps 755 mmHg 90%
    11:00 +10°C° 0.3 mm 5 mps 755 mmHg 88%
    12:00 +10°C° 0.3 mm 6 mps 755 mmHg 86%
    13:00 +10°C° 0 mm 5 mps 755 mmHg 85%
    14:00 +9°C° 0 mm 5 mps 755 mmHg 85%
    15:00 +9°C° 0 mm 5 mps 755 mmHg 84%
    16:00 +8°C° 0 mm 5 mps 755 mmHg 84%
    17:00 +8°C° 0 mm 4 mps 755 mmHg 85%
    18:00 +7°C° 0 mm 4 mps 755 mmHg 86%
    19:00 +7°C° 0 mm 4 mps 755 mmHg 87%
    20:00 +7°C° 0 mm 4 mps 755 mmHg 87%
    21:00 +7°C° 0 mm 4 mps 754 mmHg 88%
    22:00 +7°C° 0 mm 4 mps 754 mmHg 89%
    23:00 +7°C° 0 mm 4 mps 754 mmHg 89%

    Tomorrow, 22 November, Wednesday

    Time Temperature Precipitation Wind Pressure Humidity
    00:00 +7°C° 0 mm 4 mps 754 mmHg 90%
    01:00 +7°C° 0 mm 4 mps 754 mmHg 90%
    02:00 +7°C° 0 mm 4 mps 753 mmHg 90%
    03:00 +7°C° 0 mm 4 mps 753 mmHg 90%
    04:00 +7°C° 0 mm 4 mps 753 mmHg 89%
    05:00 +7°C° 0 mm 4 mps 753 mmHg 88%
    06:00 +7°C° 0 mm 4 mps 753 mmHg 87%
    07:00 +7°C° 0 mm 4 mps 753 mmHg 83%
    08:00 +8°C° 0 mm 4 mps 753 mmHg 80%
    09:00 +8°C° 0 mm 4 mps 753 mmHg 77%
    10:00 +10°C° 0 mm 4 mps 753 mmHg 72%
    11:00 +12°C° 0 mm 4 mps 753 mmHg 67%
    12:00 +13°C° 0 mm 4 mps 752 mmHg 62%
    13:00 +12°C° 0 mm 4 mps 752 mmHg 63%
    14:00 +12°C° 0 mm 4 mps 752 mmHg 65%
    15:00 +11°C° 0 mm 4 mps 751 mmHg 67%
    16:00 +11°C° 0 mm 4 mps 751 mmHg 68%
    17:00 +10°C° 0 mm 4 mps 751 mmHg 68%
    18:00 +8°C° 0 mm 4 mps 751 mmHg 69%
    19:00 +8°C° 0 mm 4 mps 751 mmHg 67%
    20:00 +8°C° 0 mm 4 mps 750 mmHg 66%
    21:00 +8°C° 0 mm 4 mps 750 mmHg 65%
    22:00 +8°C° 0 mm 4 mps 750 mmHg 64%
    23:00 +8°C° 0 mm 5 mps 750 mmHg 64%

    Day after tomorrow, 23 November, Thursday

    Time Temperature Precipitation Wind Pressure Humidity
    00:00 +8°C° 0 mm 5 mps 750 mmHg 63%
    01:00 +8°C° 0 mm 5 mps 749 mmHg 65%
    02:00 +8°C° 0 mm 5 mps 749 mmHg 67%
    03:00 +9°C° 0 mm 6 mps 749 mmHg 69%
    04:00 +9°C° 0 mm 6 mps 749 mmHg 70%
    05:00 +9°C° 0 mm 6 mps 749 mmHg 71%
    06:00 +10°C° 0 mm 6 mps 749 mmHg 73%
    07:00 +11°C° 0 mm 6 mps 749 mmHg 71%
    08:00 +11°C° 0 mm 6 mps 749 mmHg 70%
    09:00 +12°C° 0 mm 7 mps 750 mmHg 68%
    10:00 +14°C° 0 mm 7 mps 750 mmHg 66%
    11:00 +14°C° 0 mm 7 mps 750 mmHg 64%
    12:00 +15°C° 0 mm 7 mps 751 mmHg 62%
    13:00 +15°C° 0 mm 6 mps 751 mmHg 66%
    14:00 +14°C° 0 mm 5 mps 752 mmHg 69%
    15:00 +14°C° 0 mm 5 mps 752 mmHg 73%
    16:00 +14°C° 0 mm 5 mps 752 mmHg 74%
    17:00 +13°C° 0 mm 5 mps 753 mmHg 76%
    18:00 +13°C° 0 mm 5 mps 753 mmHg 77%
    19:00 +13°C° 0 mm 5 mps 753 mmHg 78%
    20:00 +12°C° 0 mm 5 mps 754 mmHg 78%
    21:00 +12°C° 0 mm 5 mps 754 mmHg 79%
    22:00 +12°C° 0 mm 5 mps 754 mmHg 79%
    23:00 +12°C° 0 mm 5 mps 754 mmHg 79%

    24 November, Friday

    Time Temperature Precipitation Wind Pressure Humidity
    00:00 +12°C° 0 mm 5 mps 754 mmHg 80%
    01:00 +12°C° 0 mm 5 mps 754 mmHg 79%
    02:00 +12°C° 0 mm 5 mps 754 mmHg 79%
    03:00 +12°C° 0 mm 4 mps 754 mmHg 79%
    04:00 +12°C° 0 mm 4 mps 754 mmHg 79%
    05:00 +12°C° 0 mm 4 mps 754 mmHg 79%
    06:00 +11°C° 0 mm 4 mps 754 mmHg 79%
    07:00 +12°C° 0.1 mm 4 mps 754 mmHg 78%
    08:00 +12°C° 0.1 mm 4 mps 754 mmHg 77%
    09:00 +12°C° 0.1 mm 5 mps 754 mmHg 76%
    10:00 +13°C° 0 mm 5 mps 754 mmHg 75%
    11:00 +13°C° 0 mm 5 mps 754 mmHg 73%
    12:00 +14°C° 0 mm 5 mps 753 mmHg 71%
    13:00 +14°C° 0 mm 5 mps 753 mmHg 72%
    14:00 +14°C° 0 mm 5 mps 753 mmHg 72%
    15:00 +14°C° 0 mm 5 mps 753 mmHg 73%
    16:00 +14°C° 0.1 mm 5 mps 753 mmHg 74%
    17:00 +13°C° 0.1 mm 5 mps 753 mmHg 76%
    18:00 +13°C° 0.1 mm 5 mps 753 mmHg 78%
    19:00 +13°C° 0.1 mm 5 mps 753 mmHg 78%
    20:00 +13°C° 0.1 mm 4 mps 753 mmHg 79%
    21:00 +13°C° 0.1 mm 4 mps 753 mmHg 79%
    22:00 +13°C° 0 mm 4 mps 753 mmHg 79%
    23:00 +13°C° 0 mm 5 mps 753 mmHg 79%

    25 November, Saturday

    Time Temperature Precipitation Wind Pressure Humidity
    00:00 +12°C° 0 mm 5 mps 752 mmHg 79%
    01:00 +12°C° 0 mm 5 mps 752 mmHg 79%
    02:00 +12°C° 0 mm 5 mps 751 mmHg 78%
    03:00 +12°C° 0 mm 5 mps 750 mmHg 78%
    04:00 +13°C° 0 mm 5 mps 750 mmHg 76%
    05:00 +13°C° 0 mm 6 mps 749 mmHg 75%
    06:00 +13°C° 0 mm 6 mps 749 mmHg 74%
    07:00 +13°C° 0.3 mm 6 mps 749 mmHg 73%
    08:00 +11°C° 0.3 mm 7 mps 749 mmHg 72%
    09:00 +11°C° 0.3 mm 8 mps 749 mmHg 71%
    10:00 +11°C° 0.1 mm 8 mps 750 mmHg 66%
    11:00 +10°C° 0.1 mm 9 mps 750 mmHg 62%
    12:00 +8°C° 0.1 mm 10 mps 751 mmHg 57%
    13:00 +8°C° 0 mm 10 mps 752 mmHg 56%
    14:00 +7°C° 0 mm 9 mps 753 mmHg 55%
    15:00 +7°C° 0 mm 9 mps 754 mmHg 55%
    16:00 +6°C° 0 mm 8 mps 755 mmHg 57%
    17:00 +5°C° 0 mm 7 mps 756 mmHg 60%
    18:00 +5°C° 0 mm 6 mps 757 mmHg 62%
    19:00 +4°C° 0 mm 6 mps 757 mmHg 65%
    20:00 +4°C° 0 mm 6 mps 758 mmHg 67%
    21:00 +4°C° 0 mm 6 mps 758 mmHg 70%
    22:00 +3°C° 0 mm 5 mps 759 mmHg 70%
    23:00 +3°C° 0 mm 5 mps 759 mmHg 70%

    26 November, Sunday

    Time Temperature Precipitation Wind Pressure Humidity
    00:00 +3°C° 0 mm 5 mps 759 mmHg 71%
    01:00 +3°C° 0 mm 5 mps 759 mmHg 72%
    02:00 +3°C° 0 mm 4 mps 759 mmHg 73%
    03:00 +3°C° 0 mm 4 mps 760 mmHg 74%
    04:00 +3°C° 0 mm 4 mps 760 mmHg 75%
    05:00 +3°C° 0 mm 4 mps 760 mmHg 76%
    06:00 +2°C° 0 mm 5 mps 760 mmHg 77%
    07:00 +2°C° 0 mm 5 mps 760 mmHg 75%
    08:00 +3°C° 0 mm 5 mps 760 mmHg 72%
    09:00 +3°C° 0 mm 6 mps 761 mmHg 70%
    10:00 +4°C° 0 mm 6 mps 761 mmHg 64%
    11:00 +4°C° 0 mm 6 mps 761 mmHg 59%
    12:00 +5°C° 0 mm 7 mps 761 mmHg 53%
    13:00 +5°C° 0 mm 6 mps 761 mmHg 55%
    14:00 +4°C° 0 mm 6 mps 761 mmHg 57%
    15:00 +5°C° 0 mm 5 mps 761 mmHg 58%
    16:00 +5°C° 0 mm 5 mps 762 mmHg 61%
    17:00 +5°C° 0 mm 5 mps 762 mmHg 64%
    18:00 +3°C° 0 mm 5 mps 762 mmHg 68%
    19:00 +3°C° 0 mm 5 mps 763 mmHg 71%
    20:00 +3°C° 0 mm 5 mps 763 mmHg 74%
    21:00 +3°C° 0 mm 5 mps 763 mmHg 78%
    22:00 +3°C° 0 mm 5 mps 763 mmHg 80%
    23:00 +3°C° 0 mm 4 mps 764 mmHg 82%
    Show more